Concordia, KS

4:33 PM CDT on August 20, 2017 (GMT -0500)
Blosser Municipal

Weather History for KCNK - September, 2012

Change the Weather History Date:

Monday, September 10, 2012

  Actual Average Record
Temperature  
Mean Temperature 70 °F 70 °F  
Max Temperature 88 °F 83 °F 100 °F (2000)
Min Temperature 52 °F 59 °F 42 °F (1962)
Degree Days  
Heating Degree Days 0 1  
Month to date heating degree days 1 8  
Since 1 July heating degree days 1 11  
Cooling Degree Days 5 7  
Month to date cooling degree days 86 80  
Year to date cooling degree days 1608 1246  
Growing Degree Days 20 (Base 50)    
Moisture  
Dew Point 48 °F    
Average Humidity 50    
Maximum Humidity 77    
Minimum Humidity 23    
Precipitation  
Precipitation 0.00 in 0.09 in 2.51 in (2003)
Month to date precipitation 0.42 0.96  
Year to date precipitation 18.67 22.06  
Snow  
Snow 0.00 in 0.00 in 0.00 in ()
Month to date snowfall 0.0 0.0  
Year to date snowfall 5.8 13.7  
Since 1 July snowfall 0.0 0.0  
Snow Depth 0.00 in    
Sea Level Pressure  
Sea Level Pressure 30.01 in    
Wind  
Wind Speed 13 mph (South)    
Max Wind Speed 24 mph    
Max Gust Speed 30 mph    
Visibility 10 miles    
Events      
T = Trace of Precipitation, MM = Missing Value Source: NWS Daily Summary

Daily Weather History Graph

Daily Weather History Graph

Search for Another Location

Airport or City:

Trip Planner

Search our weather history database for the weather conditions in past years. The results will help you decide how hot, cold, wet, or windy it might be!

Date:

Astronomy

Sep. 10, 2012 Rise Set
Actual Time 7:07 AM CDT 7:46 PM CDT
Civil Twilight 6:40 AM CDT 8:13 PM CDT
Nautical Twilight 6:08 AM CDT 8:45 PM CDT
Astronomical Twilight 5:35 AM CDT 9:18 PM CDT
Moon 1:30 AM CDT (9/10) 4:16 PM CDT (9/10)
Length of Visible Light 13h 33m
Length of Day
12h 38m
Waning Crescent, 30% of the Moon is Illuminated
Sep 10
Waning Crescent
Sep 15
New
Sep 22
First Quarter
Sep 29
Full
Oct 8
Last Quarter

Hourly Weather History & Observations

Time (CDT) Temp. Dew Point Humidity Pressure Visibility Wind Dir Wind Speed Gust Speed Precip Events Conditions
12:55 AM 55.9 °F 46.9 °F 72% 30.11 in 10.0 mi South 6.9 mph - N/A   Clear
1:55 AM 55.0 °F 46.9 °F 74% 30.10 in 10.0 mi South 6.9 mph - N/A   Clear
2:55 AM 55.0 °F 46.9 °F 74% 30.09 in 10.0 mi SE 3.5 mph - N/A   Clear
3:55 AM 54.0 °F 46.0 °F 75% 30.09 in 10.0 mi Calm Calm - N/A   Clear
4:55 AM 57.0 °F 46.9 °F 69% 30.08 in 10.0 mi South 9.2 mph - N/A   Clear
5:55 AM 57.0 °F 48.0 °F 72% 30.09 in 10.0 mi South 12.7 mph - N/A   Clear
6:55 AM 57.0 °F 46.9 °F 69% 30.09 in 10.0 mi South 13.8 mph - N/A   Clear
7:55 AM 57.0 °F 48.0 °F 72% 30.11 in 10.0 mi South 12.7 mph 19.6 mph N/A   Clear
8:55 AM 62.1 °F 48.9 °F 62% 30.10 in 10.0 mi South 18.4 mph 23.0 mph N/A   Clear
9:55 AM 66.9 °F 50.0 °F 54% 30.09 in 10.0 mi South 16.1 mph 21.9 mph N/A   Clear
10:55 AM 71.1 °F 50.0 °F 47% 30.08 in 10.0 mi South 19.6 mph 25.3 mph N/A   Clear
11:55 AM 75.9 °F 51.1 °F 42% 30.05 in 10.0 mi South 13.8 mph 24.2 mph N/A   Clear
12:55 PM 80.1 °F 50.0 °F 35% 30.02 in 10.0 mi South 19.6 mph 26.5 mph N/A   Clear
1:55 PM 82.9 °F 50.0 °F 32% 30.00 in 10.0 mi South 18.4 mph - N/A   Clear
2:55 PM 84.9 °F 50.0 °F 30% 29.97 in 10.0 mi South 15.0 mph 24.2 mph N/A   Clear
3:55 PM 87.1 °F 48.0 °F 26% 29.94 in 10.0 mi South 15.0 mph 25.3 mph N/A   Clear
4:55 PM 87.1 °F 46.0 °F 24% 29.92 in 10.0 mi South 18.4 mph 29.9 mph N/A   Clear
5:55 PM 86.0 °F 45.0 °F 24% 29.91 in 10.0 mi South 19.6 mph 25.3 mph N/A   Clear
6:55 PM 82.9 °F 45.0 °F 26% 29.90 in 10.0 mi South 10.4 mph - N/A   Clear
7:55 PM 73.9 °F 46.9 °F 38% 29.90 in 10.0 mi South 9.2 mph - N/A   Clear
8:55 PM 71.1 °F 48.0 °F 44% 29.91 in 10.0 mi South 10.4 mph - N/A   Clear
9:55 PM 72.0 °F 46.9 °F 41% 29.91 in 10.0 mi South 12.7 mph - N/A   Clear
10:55 PM 73.0 °F 46.9 °F 39% 29.90 in 10.0 mi South 15.0 mph - N/A   Clear
11:55 PM 70.0 °F 48.0 °F 46% 29.90 in 10.0 mi SSE 13.8 mph - N/A   Clear